THOR AGENA D R/B, 2255

Orbit data source: Space-Track

THOR AGENA D R/B, 2255 is space debris in LEO originally from a launch on Fri, 24 Jun 1966 UTC launched from the Air Force Western Test Range (AFWTR). Debris objects in space refer to the collection of defunct objects orbiting the Earth. Examples of debris include non-operational satellites, rocket bodies, and fragments generated from explosions, collisions, or faulty payload assembly.

Loading next visibility...
Identifier
2255, 1966-056B
Orbit
LEO
Country
Flag of USUS
Related business
Manufacturer
LMSC
Mission
Spacecraft
Bus & Motor
AGENA D, Unknown motor
Mass
600 kg wet, 600 kg dry
Launch date (UTC)
Icon of a cake. It is the launch day of the satellite!1966-06-24 (60 years ago)
Launch vehicle
Unknown
Launch site
Air Force Western Test Range (AFWTR)
Object type
Payload
Rocket body
Debris
Shape & HBR
Unknown
Radar Cross Section
Large (>1 m²)

Expand to show TLE details & history
Last TLE update: 11 hours ago

TLE from 11 hours ago
0 THOR AGENA D R/B
1 02255U 66056B   26175.01086898  .00000026  00000-0  22946-1 0  9990
2 02255  86.9722 178.4553 0047376  94.5870 266.0351  7.94756296740866
Epoch: 2026-06-24T00:15Z
TLE epoch observation values (Epoch: 2026-06-24T00:15:39.079Z)
Latitude
0.00002°
Longitude
-97.63174°
Altitude
4,234.312 km
Speed
6.128 km/s
True Right ascension
11h 53m 49s
True Declination
0° 00' 00"
Sunlit
Object was in daylight at epoch
Visualization orbit readout
Latitude
Unknown
Longitude
Unknown
Altitude
Unknown
Speed
Unknown
Apparent Right ascension
Unknown
Apparent Declination
Unknown
Sunlit
N/A
Visualization observer readout
Local Sidereal Time
22:40:20
Azimuth
Unknown
Elevation
Unknown
Doppler factor
Unknown
Orbital elements
Apogee altitude
4,276.725 km
Perigee altitude
4,176.244 km
Semi-major axis
10,604.621 km
Eccentricity
0.00474
Inclination
86.9722°
RAAN
178.4553°
Arg. of periapsis
94.587°
True anomaly
265.49374°
Mean anomaly
266.0351°
Eccentric anomaly
265.7644°
Mean motion
1.98747 °/min
Orbital period
181.13 mins
BSTAR
0.022946
Loading maneuver chart data...
Computing Atmospheric mass density...

Documentation

Showing up to 5 results
|